| time (UTC) | temp F | wind direction | speed MPH | gust MPH | rain 1hr in | rain 24hr in | rain mn in | humidity % | barometer mb |
| 20260505070054 | 56 | 0 | 0.0 | 3.0 | 0.00 | 0.00 | 0.00 | 62 | 1012.5 |
| 20260505064550 | 56 | 0 | 0.0 | 0.0 | 0.00 | 0.00 | 0.00 | 62 | 1012.6 |
| 20260505063051 | 56 | 0 | 0.0 | 0.0 | 0.00 | 0.00 | 0.00 | 62 | 1012.6 |
| 20260505061552 | 57 | 0 | 0.0 | 0.0 | 0.00 | 0.00 | 0.00 | 59 | 1012.5 |
| 20260505054553 | 59 | 0 | 0.0 | 1.0 | 0.00 | 0.00 | 0.00 | 54 | 1012.4 |
| 20260505053049 | 60 | 0 | 0.0 | 0.0 | 0.00 | 0.00 | 0.00 | 52 | 1012.3 |
| 20260505051550 | 61 | 0 | 0.0 | 2.0 | 0.00 | 0.00 | 0.00 | 53 | 1012.3 |
| 20260505041554 | 64 | 0 | 0.0 | 5.0 | 0.00 | 0.00 | 0.00 | 46 | 1012.0 |
| 20260505040056 | 64 | 231 | 0.0 | 4.0 | 0.00 | 0.00 | 0.00 | 45 | 1012.2 |
| 20260505034550 | 66 | 284 | 0.0 | 3.0 | 0.00 | 0.00 | 0.00 | 43 | 1012.3 |
| 20260505033049 | 65 | 285 | 0.0 | 2.0 | 0.00 | 0.00 | 0.00 | 44 | 1012.4 |
| 20260505031551 | 66 | 0 | 0.0 | 5.0 | 0.00 | 0.00 | 0.00 | 45 | 1012.3 |
| 20260505030108 | 66 | 242 | 0.0 | 5.0 | 0.00 | 0.00 | 0.00 | 46 | 1012.3 |
| 20260505024550 | 66 | 238 | 0.0 | 3.0 | 0.00 | 0.00 | 0.00 | 47 | 1012.4 |
| 20260505023047 | 66 | 293 | 1.0 | 3.0 | 0.00 | 0.00 | 0.00 | 48 | 1012.4 |
| 20260505021551 | 66 | 0 | 0.0 | 3.0 | 0.00 | 0.00 | 0.00 | 49 | 1012.4 |
| 20260505020059 | 66 | 277 | 0.0 | 4.0 | 0.00 | 0.00 | 0.00 | 52 | 1012.5 |
| 20260505014603 | 67 | 0 | 1.0 | 5.0 | 0.00 | 0.00 | 0.00 | 48 | 1012.5 |
| 20260505013053 | 68 | 117 | 0.0 | 5.0 | 0.00 | 0.00 | 0.00 | 47 | 1012.4 |
| 20260505011557 | 67 | 0 | 1.0 | 8.0 | 0.00 | 0.00 | 0.00 | 48 | 1012.2 |
| 20260505010055 | 66 | 0 | 1.0 | 8.0 | 0.00 | 0.00 | 0.00 | 51 | 1012.1 |
| 20260505004551 | 64 | 0 | 0.0 | 3.0 | 0.00 | 0.00 | 0.00 | 58 | 1011.8 |
| 20260505003057 | 64 | 0 | 0.0 | 0.0 | 0.00 | 0.00 | 0.00 | 56 | 1011.5 |
| 20260505001546 | 67 | 0 | 0.0 | 0.0 | 0.00 | 0.00 | 0.00 | 51 | 1011.5 |
| 20260505000051 | 69 | 0 | 0.0 | 0.0 | 0.00 | 0.00 | 0.00 | 48 | 1011.5 |
| 20260504234547 | 72 | 0 | 0.0 | 1.0 | 0.00 | 0.00 | 0.00 | 40 | 1011.3 |
| 20260504233050 | 75 | 0 | 0.0 | 3.0 | 0.00 | 0.00 | 0.00 | 35 | 1011.2 |
| 20260504231549 | 76 | 274 | 1.0 | 7.0 | 0.00 | 0.00 | 0.00 | 35 | 1011.1 |
| 20260504230049 | 76 | 240 | 1.0 | 9.0 | 0.00 | 0.00 | 0.00 | 34 | 1011.1 |
| 20260504224547 | 77 | 249 | 2.0 | 5.0 | 0.00 | 0.00 | 0.00 | 35 | 1011.3 |
| 20260504223100 | 78 | 250 | 0.0 | 5.0 | 0.00 | 0.00 | 0.00 | 35 | 1011.1 |
| 20260504221545 | 77 | 121 | 2.0 | 6.0 | 0.00 | 0.00 | 0.00 | 36 | 1011.2 |
| 20260504220051 | 77 | 213 | 2.0 | 10.0 | 0.00 | 0.00 | 0.00 | 36 | 1011.4 |
| 20260504214548 | 77 | 296 | 0.0 | 5.0 | 0.00 | 0.00 | 0.00 | 36 | 1011.5 |
| 20260504213055 | 76 | 167 | 1.0 | 7.0 | 0.00 | 0.00 | 0.00 | 37 | 1011.6 |
| 20260504211633 | 77 | 274 | 1.0 | 5.0 | 0.00 | 0.00 | 0.00 | 36 | 1011.6 |
| 20260504210054 | 76 | 99 | 2.0 | 6.0 | 0.00 | 0.00 | 0.00 | 37 | 1011.5 |
| 20260504204550 | 76 | 124 | 2.0 | 8.0 | 0.00 | 0.00 | 0.00 | 39 | 1011.5 |
| 20260504203057 | 74 | 246 | 1.0 | 4.0 | 0.00 | 0.00 | 0.00 | 42 | 1011.6 |
| 20260504201557 | 74 | 0 | 0.0 | 2.0 | 0.00 | 0.00 | 0.00 | 46 | 1012.0 |
| 20260504200047 | 73 | 0 | 0.0 | 4.0 | 0.00 | 0.00 | 0.00 | 42 | 1012.1 |
| 20260504194551 | 73 | 290 | 1.0 | 5.0 | 0.00 | 0.00 | 0.00 | 42 | 1012.2 |
| 20260504193051 | 73 | 248 | 1.0 | 3.0 | 0.00 | 0.00 | 0.00 | 41 | 1012.4 |
| 20260504191606 | 73 | 96 | 0.0 | 2.0 | 0.00 | 0.00 | 0.00 | 41 | 1012.7 |
| 20260504190104 | 71 | 245 | 2.0 | 5.0 | 0.00 | 0.00 | 0.00 | 42 | 1012.7 |
| 20260504184552 | 70 | 121 | 0.0 | 4.0 | 0.00 | 0.00 | 0.00 | 44 | 1012.8 |
| 20260504183045 | 69 | 248 | 1.0 | 5.0 | 0.00 | 0.00 | 0.00 | 45 | 1013.3 |
| 20260504181559 | 69 | 277 | 2.0 | 6.0 | 0.00 | 0.00 | 0.00 | 45 | 1013.7 |
| 20260504180052 | 68 | 119 | 1.0 | 12.0 | 0.00 | 0.00 | 0.00 | 45 | 1013.6 |
| 20260504174553 | 69 | 232 | 1.0 | 13.0 | 0.00 | 0.00 | 0.00 | 43 | 1013.7 |
| 20260504173055 | 69 | 259 | 3.0 | 7.0 | 0.00 | 0.00 | 0.00 | 41 | 1013.8 |
| 20260504171551 | 71 | 281 | 2.0 | 10.0 | 0.00 | 0.00 | 0.00 | 40 | 1013.7 |
| 20260504081548 | 49 | 0 | 0.0 | 0.0 | 0.00 | 0.00 | 0.00 | 59 | 1015.2 |